Starlink 1443

operational
NORAD ID: 45660 Int'l Des: 2020-035 Owner: SPXS Country: US Constellation: starlink
LEOCIRCULARSTARLINK_TYPE

About Starlink 1443

Description loading...

Live Position

Loading 3D Globe...

Upcoming Passes

Altitude History

Altitude vs Time

uPlot chart will show altitude changes over time

Two-Line Element Set

1 45660U 20035D 25258.06994445 .00001668 00000-0 13084-3 0 9994
2 45660 53.0539 135.0086 0001409 90.0433 270.0717 15.06400518292269
Epoch: Sep 15, 2025 • Age: 31 hours

Current Status

Altitude 560.6 km
Velocity 7.58 km/s
Sub-Earth Point -38.94°S, 143.57°W
Launch Date Jun 4, 2020
Age 5.2 years
Type internet

Technical Details

Classification Payload
Mass 260.00 kg
Dry Mass 248.00 kg
Total Mass 260.00 kg
Length 0.20 m
Diameter 2.80 m
Span 9.00 m
Shape Box + pan
Manufacturer SPXS
Bus Type Starlink
Phase Status In Orbit
Owner/State SPXS/US

Large Constellations

Loading constellations...